Back to catalog

FENGYUN 1C DEB

LostPO
NORAD 32330·DEBRIS·🇨🇳 China

Launched May 10, 1999 from Taiyuan Satellite Launch Center

Loading…

Next Passes (next 24 hours)

TLE

StaleSource: Space-Track

Epoch: May 3, 2024, 18:11 UTC

1 32330U 99025CXX 24124.75831462  .00005454  00000-0  30831-2 0  9990
2 32330  98.0357 115.2768 0175501 344.6337  14.9543 14.03039670869781

Track FENGYUN 1C DEB in real time with AllMySat

Download on the App Store